Flag for U.S.A. Weather past 2 weeks in Tulsa, Oklahoma, U.S.A.

69 °F


Feels Like: 69 °F
Forecast: 49 / 75 °F
Wind: 6 mph from Southeast

Location: Tulsa International Airport

Current Time: Oct 10, 2015 at 1:33:17 PM

Latest Report: Oct 10, 2015 at 12:53 PM

Visibility: 10 mi

Pressure: 30.18 "Hg

Humidity: 55%

Dew point: 52 °F

Location of TulsaLocation

Historic Weather in Tulsa — Graph


Tulsa temperature yesterday

Maximum temperature yesterday: 72 °F (at 3:53 PM)
Minimum temperature yesterday: 57 °F (at 11:53 PM)
Average temperature yesterday: 65 °F

Past Weeks' High & Low Weather Summary

High88 °F (Sep 25, 2:53 PM)100% (Sep 29, 5:53 AM)30.26 "Hg (Sep 29, 5:53 AM)
Low46 °F (Oct 3, 6:53 AM)32% (Sep 25, 4:53 PM)29.84 "Hg (Sep 28, 4:53 PM)
Average67 °F71%30.06 "Hg
* Reported Sep 25 11:53 AM — Oct 10 11:53 AM, Tulsa, Weather by CustomWeather, © 2015

Note: Actual official high and low records may vary slightly from our data, if they occured in-between our weather recording intervals... More about our weather records


Tulsa weather history for previous 24 hours

Time TempWeatherWind HumidityBarometerVisibility
11:53 AM
Sat, Oct 10
66 °FSunny.3 mph61%30.21 "Hg10 mi
10:53 AM63 °FSunny.3 mph68%30.23 "Hg10 mi
9:53 AM59 °FPassing clouds.No wind78%30.24 "Hg10 mi
8:53 AM54 °FFog.No wind93%30.24 "Hg6 mi
7:53 AM49 °FFog.3 mph97%30.24 "Hg6 mi
6:53 AM50 °FHigh level clouds.6 mph96%30.24 "Hg9 mi
5:53 AM51 °FHigh level clouds.3 mph100%30.24 "Hg8 mi
4:53 AM51 °FHigh level clouds.3 mph100%30.22 "Hg9 mi
3:53 AM53 °FHigh level clouds.5 mph93%30.22 "Hg10 mi
2:53 AM54 °FPassing clouds.6 mph90%30.23 "Hg10 mi
1:53 AM55 °FPassing clouds.5 mph87%30.23 "Hg10 mi
12:53 AM54 °FPassing clouds.3 mph90%30.23 "Hg10 mi
11:53 PM
Fri, Oct 9
57 °FPassing clouds.5 mph83%30.22 "Hg10 mi
10:53 PM60 °FPassing clouds.10 mph78%30.23 "Hg10 mi
9:53 PM60 °FPassing clouds.3 mph75%30.22 "Hg10 mi
8:53 PM62 °FPassing clouds.9 mph73%30.21 "Hg10 mi
7:53 PM65 °FPassing clouds.6 mph66%30.20 "Hg10 mi
6:53 PM67 °FPassing clouds.8 mph63%30.18 "Hg10 mi
5:53 PM71 °FPassing clouds.8 mph53%30.18 "Hg10 mi
4:53 PM72 °FPassing clouds.10 mph55%30.18 "Hg10 mi
3:53 PM72 °FPassing clouds.8 mph59%30.17 "Hg10 mi
2:53 PM70 °FScattered clouds.13 mph64%30.19 "Hg10 mi
1:53 PM67 °FPartly sunny.12 mph76%30.22 "Hg10 mi
Weather by CustomWeather, © 2015

See weather overviewHow to use our weather pages